Weather History for KEMM - July, 2013

Change the Weather History Date:

Tuesday, July 2, 2013

  Actual Average Record
Temperature  
Mean Temperature 75 °F -  
Max Temperature 90 °F 77 °F 90 °F (2013)
Min Temperature 60 °F 42 °F 31 °F (1955)
Cooling Degree Days 10    
Growing Degree Days 25 (Base 50)    
Moisture  
Dew Point 33 °F    
Average Humidity 25    
Maximum Humidity 45    
Minimum Humidity 5    
Precipitation  
Precipitation 0.00 in - - ()
Sea Level Pressure  
Sea Level Pressure 30.35 in    
Wind  
Wind Speed 8 mph (NNE)    
Max Wind Speed 14 mph    
Max Gust Speed 25 mph    
Visibility 10 miles    
Events      
Averages and records for this station are not official NWS values.
T = Trace of Precipitation, MM = Missing Value Source: NWS Daily Summary

Daily Weather History Graph

Daily Weather History Graph

Search for Another Location

Airport or City:

Trip Planner

Search our weather history database for the weather conditions in past years. The results will help you decide how hot, cold, wet, or windy it might be!

Date:

Astronomy

Jul. 02, 2013 Rise Set
Actual Time 5:51 AM MDT 9:00 PM MDT
Civil Twilight 5:17 AM MDT 9:34 PM MDT
Nautical Twilight 4:33 AM MDT 10:18 PM MDT
Astronomical Twilight 3:41 AM MDT 11:10 PM MDT
Moon 1:58 AM MDT (7/2) 4:15 PM MDT (7/2)
Length of Visible Light 16h 17m
Length of Day
15h 09m
Waning Crescent, 26% of the Moon is Illuminated
Jul 2
Waning Crescent
Jul 8
New
Jul 15
First Quarter
Jul 22
Full
Jul 29
Last Quarter

Hourly Weather History & Observations

Time (MDT) Temp. Dew Point Humidity Pressure Visibility Wind Dir Wind Speed Gust Speed Precip Events Conditions
12:15 AM 68.7 °F 38.8 °F 34% 30.40 in 10.0 mi North 5.8 mph 16.1 mph N/A   Clear
12:35 AM 67.3 °F 39.4 °F 36% 30.40 in 10.0 mi NNE 6.9 mph - N/A   Clear
12:55 AM 67.5 °F 39.4 °F 36% 30.40 in 10.0 mi NNE 6.9 mph - N/A   Clear
1:15 AM 68.0 °F 38.7 °F 34% 30.38 in 10.0 mi NE 8.1 mph 16.1 mph N/A   Clear
1:35 AM 67.8 °F 38.1 °F 34% 30.38 in 10.0 mi NNE 11.5 mph 16.1 mph N/A   Clear
1:55 AM 65.8 °F 38.8 °F 37% 30.38 in 10.0 mi North 4.6 mph - N/A   Clear
2:15 AM 66.0 °F 38.7 °F 37% 30.39 in 10.0 mi North 9.2 mph - N/A   Clear
2:35 AM 63.1 °F 39.9 °F 42% 30.39 in 10.0 mi North 5.8 mph - N/A   Clear
2:55 AM 66.4 °F 37.9 °F 35% 30.38 in 10.0 mi NNE 8.1 mph - N/A   Clear
3:15 AM 64.2 °F 39.0 °F 39% 30.38 in 10.0 mi NNE 8.1 mph - N/A   Clear
3:35 AM 63.5 °F 39.2 °F 41% 30.38 in 10.0 mi NNE 8.1 mph - N/A   Clear
3:55 AM 62.2 °F 39.2 °F 43% 30.38 in 10.0 mi NNE 11.5 mph - N/A   Clear
4:15 AM 63.0 °F 39.0 °F 41% 30.38 in 10.0 mi NNE 11.5 mph - N/A   Clear
4:35 AM 62.4 °F 38.8 °F 42% 30.38 in 10.0 mi NNE 12.7 mph - N/A   Clear
4:55 AM 62.6 °F 38.7 °F 41% 30.38 in 10.0 mi NNE 12.7 mph - N/A   Clear
5:15 AM 61.9 °F 38.8 °F 43% 30.39 in 10.0 mi NNE 11.5 mph - N/A   Clear
5:35 AM 61.0 °F 39.0 °F 44% 30.39 in 10.0 mi NNE 10.4 mph - N/A   Clear
5:55 AM 60.4 °F 39.2 °F 45% 30.40 in 10.0 mi NNE 10.4 mph - N/A   Clear
6:15 AM 60.6 °F 39.4 °F 45% 30.40 in 10.0 mi North 9.2 mph - N/A   Clear
6:35 AM 62.6 °F 39.4 °F 42% 30.40 in 10.0 mi North 8.1 mph - N/A   Clear
6:55 AM 63.9 °F 39.9 °F 41% 30.39 in 10.0 mi North 8.1 mph - N/A   Clear
7:15 AM 64.6 °F 39.9 °F 40% 30.39 in 10.0 mi North 9.2 mph - N/A   Clear
7:35 AM 65.7 °F 40.6 °F 40% 30.39 in 10.0 mi North 8.1 mph - N/A   Clear
7:55 AM 67.5 °F 41.0 °F 38% 30.39 in 10.0 mi North 9.2 mph - N/A   Clear
8:15 AM 69.4 °F 41.2 °F 36% 30.39 in 10.0 mi North 8.1 mph - N/A   Clear
8:35 AM 71.8 °F 40.5 °F 32% 30.40 in 10.0 mi North 6.9 mph - N/A   Clear
8:55 AM 73.4 °F 40.8 °F 31% 30.40 in 10.0 mi North 6.9 mph - N/A   Clear
9:15 AM 75.0 °F 39.4 °F 28% 30.40 in 10.0 mi NNE 5.8 mph - N/A   Clear
9:35 AM 75.4 °F 38.5 °F 26% 30.40 in 10.0 mi NNE 4.6 mph - N/A   Clear
9:55 AM 76.6 °F 38.7 °F 25% 30.40 in 10.0 mi North 4.6 mph - N/A   Clear
10:15 AM 78.1 °F 38.3 °F 24% 30.40 in 10.0 mi East 3.5 mph - N/A   Clear
10:35 AM 80.4 °F 37.8 °F 22% 30.40 in 10.0 mi NE 4.6 mph - N/A   Clear
10:55 AM 79.9 °F 37.0 °F 21% 30.40 in 10.0 mi NNE 4.6 mph - N/A   Clear
11:15 AM 81.7 °F 36.3 °F 20% 30.39 in 10.0 mi Calm Calm - N/A   Clear
11:35 AM 83.3 °F 36.1 °F 19% 30.38 in 10.0 mi NE 5.8 mph - N/A   Clear
11:55 AM 82.8 °F 35.6 °F 18% 30.38 in 10.0 mi NE 4.6 mph - N/A   Clear
12:15 PM 83.5 °F 35.8 °F 18% 30.38 in 10.0 mi North 5.8 mph - N/A   Clear
12:35 PM 84.2 °F 35.6 °F 18% 30.37 in 10.0 mi ENE 9.2 mph - N/A   Clear
12:55 PM 86.0 °F 33.1 °F 15% 30.36 in 10.0 mi NNE 10.4 mph - N/A   Clear
1:15 PM 86.0 °F 32.2 °F 14% 30.36 in 10.0 mi NE 6.9 mph - N/A   Clear
1:35 PM 87.4 °F 33.4 °F 15% 30.35 in 10.0 mi North 8.1 mph - N/A   Clear
1:55 PM 86.7 °F 32.2 °F 14% 30.35 in 10.0 mi West 8.1 mph 18.4 mph N/A   Scattered Clouds
2:15 PM 87.3 °F 32.0 °F 14% 30.34 in 10.0 mi North 10.4 mph - N/A   Scattered Clouds
2:35 PM 88.9 °F 31.8 °F 13% 30.34 in 10.0 mi SSE 3.5 mph - N/A   Scattered Clouds
2:55 PM 89.2 °F 30.9 °F 12% 30.33 in 10.0 mi West 4.6 mph - N/A   Scattered Clouds
3:15 PM 86.9 °F 31.8 °F 14% 30.32 in 10.0 mi ENE 5.8 mph - N/A   Mostly Cloudy
3:35 PM 88.7 °F 30.9 °F 13% 30.32 in 10.0 mi WSW 3.5 mph - N/A   Scattered Clouds
3:55 PM 89.8 °F 25.0 °F 10% 30.31 in 10.0 mi North 4.6 mph 20.7 mph N/A   Clear
4:15 PM 90.1 °F 12.9 °F 6% 30.30 in 10.0 mi North 13.8 mph 23.0 mph N/A   Clear
4:35 PM 90.0 °F 11.3 °F 5% 30.31 in 10.0 mi North 5.8 mph 25.3 mph N/A   Clear
4:55 PM 90.1 °F 14.5 °F 6% 30.30 in 10.0 mi North 11.5 mph 19.6 mph N/A   Clear
5:15 PM 90.3 °F 16.3 °F 7% 30.30 in 10.0 mi North 8.1 mph 19.6 mph N/A   Clear
5:35 PM - - N/A% 30.29 in 10.0 mi NNE 11.5 mph 20.7 mph N/A   Clear
5:55 PM - - N/A% 30.29 in 10.0 mi NNE 9.2 mph - N/A   Clear
6:15 PM 87.6 °F 22.3 °F 9% 30.28 in 10.0 mi NE 10.4 mph - N/A   Clear
6:35 PM 88.2 °F 22.3 °F 9% 30.28 in 10.0 mi NNW 9.2 mph - N/A   Clear
6:55 PM 88.0 °F 24.6 °F 10% 30.27 in 10.0 mi NE 13.8 mph 17.3 mph N/A   Clear
7:15 PM - - N/A% 30.27 in 10.0 mi NE 4.6 mph - N/A   Clear
7:35 PM 82.9 °F 24.6 °F 12% 30.27 in 10.0 mi NNE 5.8 mph - N/A   Clear
7:55 PM 83.7 °F 25.3 °F 12% 30.27 in 10.0 mi West 6.9 mph - N/A   Clear
8:15 PM 80.2 °F 26.2 °F 14% 30.27 in 10.0 mi NW 6.9 mph - N/A   Clear
8:35 PM 78.4 °F 25.9 °F 14% 30.28 in 10.0 mi NW 12.7 mph - N/A   Clear
8:55 PM 77.7 °F 26.1 °F 15% 30.27 in 10.0 mi NW 12.7 mph - N/A   Clear
9:15 PM 76.1 °F 30.7 °F 19% 30.29 in 10.0 mi NE 8.1 mph - N/A   Clear
9:35 PM 73.8 °F 30.0 °F 20% 30.30 in 10.0 mi Calm Calm - N/A   Clear
9:55 PM 74.7 °F 27.5 °F 17% 30.30 in 10.0 mi East 4.6 mph - N/A   Clear
10:15 PM 73.4 °F 26.2 °F 17% 30.30 in 10.0 mi ESE 4.6 mph - N/A   Clear
10:35 PM 72.3 °F 26.6 °F 18% 30.31 in 10.0 mi NE 3.5 mph - N/A   Clear
10:55 PM 71.4 °F 27.3 °F 19% 30.32 in 10.0 mi NE 6.9 mph - N/A   Clear
11:15 PM 72.1 °F 27.3 °F 19% 30.32 in 10.0 mi WNW 3.5 mph - N/A   Clear
11:35 PM 70.3 °F 28.2 °F 21% 30.33 in 10.0 mi NNE 4.6 mph - N/A   Clear
11:55 PM 67.6 °F 28.9 °F 24% 30.32 in 10.0 mi NNW 4.6 mph - N/A   Clear